Starlink 11492

operational
NORAD ID: 62224 Int'l Des: 2024-231 Owner: SPXS Country: US Constellation: starlink
LEOCIRCULAR

关于 Starlink 11492

正在加载描述...

实时位置

正在加载3D地球...

即将过境

高度历史

Altitude vs Time

uPlot chart will show altitude changes over time

两行轨道根数

1 62224U 24231G 25259.65199770 .00119678 00000-0 97827-3 0 9993
2 62224 53.1568 239.4590 0001492 79.5826 280.5360 15.69715342 46075
Epoch: Sep 16, 2025 • Age: 29 hours

当前状态

高度 362.1 km
速度 7.70 km/s
星下点 42.55°N, 34.27°W
发射日期 Dec 5, 2024
运行时间 0.7 years
类型 internet

技术详情

分类 Payload
质量 960.00 kg
干质量 910.00 kg
总质量 960.00 kg
长度 0.30 m
直径 4.10 m
跨度 29.00 m
形状 Box + pan
制造商 SPXS
平台类型 Starlink V2MD
阶段状态 In Orbit
所有者/国家 SPXS/US

大型星座

Loading constellations...